Weather in Saint Augustine

United States     29°52′02″N   81°17′09″W
temp.,
°C
wind,
m/s
gust,
m/s
humid.,
%
clouds,
%
prec.,
mm/h
press.,
hPa
HPBL,
m
26 may, thu
thu2623:00+25se5981100 0.0 1020612
02:00+25se5983100 0.0 1019612
05:00+24se598498 0.0 1018636
08:00+25sse588098 0.0 1020888
11:00+28se6762100 0.0 10201176
14:00+29se885996 0.0 10191157
17:00+28se796594 0.0 1017748
20:00+26se7127597 0.0 1016540
27 may, fri
fri2723:00+25sse61180100 0.0 1017667
02:00+23s31085100 0.2 1016466
05:00+24s4108499 0.0 1015473
08:00+24s4881100 0.0 1016348
11:00+29ssw465917 0.2 1016949
14:00+30sw6856100 1.0 1014944
17:00+28sse5768100 0.7 1012292
20:00+26sse588059 1.9 1012160
28 may, sat
sat2823:00+24sw497955 0.4 1013199
02:00+23wsw49850 0.5 1012264
05:00+22wsw39860 0.0 1012267
08:00+23w34710 0.0 1013216
11:00+28nne23480 0.0 1014922
14:00+28e53480 0.0 10131167
17:00+27ese56584 0.0 1012479
20:00+26se59699 0.0 1012401
29 may, sun
sun2923:00+25sse49810 0.1 1014349
02:00+23s35820 0.1 1014151
05:00+22wsw22810 0.0 101463
08:00+24wsw11690 0.0 1016117
11:00+28ese34580 0.0 1016727
14:00+29ese55594 0.0 1016940
17:00+28ese78640 0.0 1015714
20:00+27ese597489 0.0 1016589
30 may, mon
mon3023:00+26sse4680100 0.0 1018303
02:00+24se2488100 0.0 1018213
05:00+24sse239099 0.1 1018199
08:00+26ese12810 0.1 1019287
11:00+28ene45670 0.0 1020885
14:00+29e45654 0.1 10201086
17:00+28ene45660 0.4 1019938
20:00+26e47792 0.4 1019742